{"data":{"norad_id":56534,"intl_designator":"2023-065AH","name":"STARLINK-6308","alt_names":[],"object_type":"PAYLOAD","status":"ACTIVE","operator":null,"country":"US","launch_date":"2023-05-14","launch_site_code":"AFETR","launch_vehicle":null,"mission":null,"orbit_class":"UNKNOWN","rcs_meters":null,"size_class":null,"mass_kg":null,"dimensions":null,"purposes":["comms"],"wikipedia_slug":null,"has_3d_model":false,"image_url":null,"decayed_at":null,"tle_current":{"epoch":"2026-05-24T23:54:20.786688Z","epoch_age_seconds":89568,"freshness":"FRESH","line1":"1 56534U 23065AH  26144.99607392 -.00000290  00000+0 -10163-5 0  9999","line2":"2 56534  42.9992 127.3611 0001016 313.9388  46.1379 15.27575254168439","mean_motion":15.27575254,"eccentricity":0.0001016,"inclination_deg":42.9992,"raan_deg":127.3611,"arg_perigee_deg":313.9388,"mean_anomaly_deg":46.1379,"bstar":-1.0163e-6,"rev_number":16843,"period_min":94.26704158956,"perigee_km":482.36620935659,"apogee_km":483.76040525903,"semimajor_km":6861.2003073078,"source":"CELESTRAK","updated_at":"2026-05-25T13:38:18.112852Z"}}}